Weather History for Des Moines, IA

Change the Weather History Date:

Tuesday, June 25, 2013

  Actual Average Record
Temperature  
Mean Temperature 81 °F 74 °F  
Max Temperature 89 °F 84 °F 99 °F (1954)
Min Temperature 72 °F 65 °F 47 °F (1958)
Degree Days  
Heating Degree Days 0 0  
Month to date heating degree days 19 14  
Since 1 June heating degree days 19 14  
Since 1 July heating degree days 6021 6199  
Cooling Degree Days 16 10  
Month to date cooling degree days 193 169  
Year to date cooling degree days 295 245  
Since 1 June cooling degree days 193 169  
Growing Degree Days 30 (Base 50)    
Moisture  
Dew Point 71 °F    
Average Humidity 72    
Maximum Humidity 93    
Minimum Humidity 50    
Precipitation  
Precipitation T in 0.16 in 2.06 in (1935)
Month to date precipitation 3.17 4.12  
Year to date precipitation 21.48 17.30  
Snow  
Snow 0.00 in 0.00 in - ()
Month to date snowfall 0.0 0.0  
Since 1 June snowfall 0.0 0.0  
Since 1 July snowfall 55.2 35.3  
Snow Depth 0.00 in    
Sea Level Pressure  
Sea Level Pressure 29.75 in    
Wind  
Wind Speed 10 mph (SSE)    
Max Wind Speed 18 mph    
Max Gust Speed 24 mph    
Visibility 10 miles    
Events Thunderstorm    
T = Trace of Precipitation, MM = Missing Value Source: NWS Daily Summary

Daily Weather History Graph

Daily Weather History Graph

Search for Another Location

Airport:

Trip Planner

Search our weather history database for the weather conditions in past years. The results will help you decide how hot, cold, wet, or windy it might be!

Date:

Astronomy

Jun. 25, 2013 Rise Set
Actual Time 5:42 AM CDT 8:52 PM CDT
Civil Twilight 5:07 AM CDT 9:26 PM CDT
Nautical Twilight 4:24 AM CDT 10:10 PM CDT
Astronomical Twilight 3:31 AM CDT 11:02 PM CDT
Moon 10:35 PM CDT (6/25) 8:24 AM CDT (6/25)
Length of Visible Light 16h 18m
Length of Day
15h 10m
Waning Gibbous, 92% of the Moon is Illuminated
Jun 25
Waning Gibbous
Jun 29
Last Quarter
Jul 8
New
Jul 15
First Quarter
Jul 22
Full

Hourly Weather History & Observations

Time (CDT) Temp. Heat Index Dew Point Humidity Pressure Visibility Wind Dir Wind Speed Gust Speed Precip Events Conditions
12:54 AM 73.0 °F - 69.1 °F 87% 29.78 in 10.0 mi SE 6.9 mph - N/A   Mostly Cloudy
1:54 AM 73.0 °F - 69.1 °F 87% 29.77 in 10.0 mi SSE 5.8 mph - N/A   Mostly Cloudy
2:54 AM 73.9 °F - 70.0 °F 87% 29.76 in 10.0 mi SSE 6.9 mph - N/A   Overcast
3:47 AM 75.0 °F - 70.0 °F 84% 29.79 in 10.0 mi South 5.8 mph - N/A Thunderstorm Thunderstorm
3:54 AM 73.9 °F - 69.1 °F 85% 29.78 in 10.0 mi WSW 4.6 mph - N/A Thunderstorm Thunderstorm
4:23 AM 73.9 °F - 70.0 °F 87% 29.79 in 10.0 mi NNE 5.8 mph - 0.00 in   Overcast
4:54 AM 73.9 °F - 70.0 °F 87% 29.76 in 10.0 mi SSE 8.1 mph - 0.00 in   Overcast
5:54 AM 72.0 °F - 69.1 °F 91% 29.75 in 10.0 mi South 6.9 mph - N/A   Overcast
6:54 AM 73.9 °F - 69.1 °F 85% 29.76 in 10.0 mi South 10.4 mph - N/A   Overcast
7:54 AM 75.0 °F - 69.1 °F 82% 29.77 in 10.0 mi South 10.4 mph - N/A   Overcast
8:54 AM 75.9 °F - 70.0 °F 82% 29.80 in 10.0 mi SSE 8.1 mph - N/A   Overcast
9:54 AM 77.0 °F - 71.1 °F 82% 29.81 in 10.0 mi SSE 9.2 mph - N/A   Overcast
10:54 AM 80.1 °F 83.6 °F 71.1 °F 74% 29.78 in 10.0 mi SSE 12.7 mph - N/A   Overcast
11:54 AM 82.0 °F 86.7 °F 72.0 °F 71% 29.79 in 10.0 mi SSW 11.5 mph - N/A   Mostly Cloudy
12:54 PM 86.0 °F 92.2 °F 72.0 °F 63% 29.77 in 10.0 mi South 11.5 mph - N/A   Mostly Cloudy
1:54 PM 87.1 °F 89.9 °F 66.9 °F 51% 29.76 in 10.0 mi SSW 11.5 mph - N/A   Mostly Cloudy
2:54 PM 88.0 °F 92.9 °F 70.0 °F 55% 29.75 in 10.0 mi SSE 16.1 mph - N/A   Mostly Cloudy
3:54 PM 87.1 °F 90.6 °F 68.0 °F 53% 29.74 in 10.0 mi South 12.7 mph - N/A   Overcast
4:54 PM 87.1 °F 92.0 °F 70.0 °F 57% 29.71 in 10.0 mi South 12.7 mph - N/A   Mostly Cloudy
5:54 PM 86.0 °F 92.2 °F 72.0 °F 63% 29.70 in 10.0 mi South 13.8 mph - N/A   Scattered Clouds
6:54 PM 84.0 °F 89.6 °F 72.0 °F 67% 29.71 in 10.0 mi South 11.5 mph - N/A   Mostly Cloudy
7:54 PM 82.9 °F 88.8 °F 73.0 °F 72% 29.71 in 10.0 mi SSE 10.4 mph - N/A   Overcast
8:54 PM 82.9 °F 88.8 °F 73.0 °F 72% 29.70 in 10.0 mi SSE 11.5 mph - N/A   Overcast
9:54 PM 82.0 °F 87.9 °F 73.9 °F 76% 29.70 in 10.0 mi SSE 10.4 mph - N/A   Mostly Cloudy
10:54 PM 81.0 °F 86.2 °F 73.9 °F 79% 29.70 in 10.0 mi SSE 6.9 mph - N/A   Scattered Clouds
11:54 PM 80.1 °F 84.2 °F 73.0 °F 79% 29.69 in 10.0 mi SSE 6.9 mph - N/A   Scattered Clouds